METEOR 2-17 DEB, 35367

Orbit data source: Space-Track

METEOR 2-17 DEB, 35367 is space debris in LEO originally from a launch on Sat, 30 Jan 1988 UTC launched from the Plesetsk Missile And Space Complex (PKMTR). Debris objects in space refer to the collection of defunct objects orbiting the Earth. Examples of debris include non-operational satellites, rocket bodies, and fragments generated from explosions, collisions, or faulty payload assembly.

Loading next visibility...
Identifier
35367, 1988-005AB
Orbit
LEO
Country
Flag of CISCIS
Related business
Manufacturer
Unknown
Mission
Spacecraft
Bus & Motor
Unknown
Mass
Unknown
Launch date (UTC)
1988-01-30 (38 years ago)
Launch vehicle
Unknown
Launch site
Plesetsk Missile And Space Complex (PKMTR)
Object type
Payload
Rocket body
Debris
Shape & HBR
Unknown shape, 0.1 m
Radar Cross Section
Small (<0.1 m²)

Expand to show TLE details & history
Last TLE update: 2 days ago

TLE from 2 days ago
0 METEOR 2-17 DEB
1 35367U 88005AB  25305.65016644  .00001172  00000-0  80280-3 0  9994
2 35367  82.5169  90.2743 0014506 260.4852 115.5772 13.98848307301873
Epoch: 2025-11-01T15:36Z
TLE epoch observation values (Epoch: 2025-11-01T15:36:14.380Z)
Latitude
16.05144°
Longitude
177.19168°
Altitude
904.615 km
Speed
7.399 km/s
True Right ascension
06h 09m 42s
True Declination
15° 57' 44"
Sunlit
Object was in full shadow at epoch
Visualization orbit readout
Latitude
Unknown
Longitude
Unknown
Altitude
Unknown
Speed
Unknown
Apparent Right ascension
Unknown
Apparent Declination
Unknown
Sunlit
N/A
Visualization observer readout
Local Sidereal Time
07:23:40
Azimuth
Unknown
Elevation
Unknown
Doppler factor
Unknown
Orbital elements
Apogee altitude
905.469 km
Perigee altitude
884.368 km
Semi-major axis
7,273.056 km
Eccentricity
0.00145
Inclination
82.5169°
RAAN
90.2743°
Arg. of periapsis
260.4852°
True anomaly
115.72702°
Mean anomaly
115.5772°
Eccentric anomaly
115.65212°
Mean motion
3.49919 °/min
Orbital period
102.88 mins
BSTAR
0.0008028
Loading maneuver chart data...
Computing Atmospheric mass density...
Loading historical data...
Loading historical data...
Loading historical data...
Loading historical data...
Loading historical data...
Loading historical data...
Loading historical data...

Documentation

Showing up to 5 results
|